Location: *
(51.5000°N, 0.1100°W)
Time: 12:53:00
(UTC+00:00)

IDEFIX/ARIANE 42P - Pass Details

Date: 05 August 2024
Orbit: 782 x 799 km, 98.5° (Epoch: 15 September)

Event Time Altitude Azimuth Distance (km) Brightness Sun altitude
Rises 03:25:55 0° 7° (N) 3,285 6.6 -9.0°
Reaches altitude 10° 03:28:41 10° 352° (N) 2,352 5.5 -8.7°
Maximum altitude 03:32:35 22° 303° (WNW) 1,661 4.1 -8.3°
Drops below altitude 10° 03:36:28 10° 254° (WSW) 2,343 4.5 -7.8°
Enters shadow 03:37:05 - 250° (WSW) 2,532 4.6 -7.7°
